This is the latest recevied weather packets stored in our database for station/object JS2QVS-13. If no packets are shown the sender has not sent any weather packets the latest 10 day(s).
| Time | Temp. | Humidity | Pressure | Rain* | Wind** | Luminosity | Snow |
|---|---|---|---|---|---|---|---|
| 1777438541 | 22.78° C | 38% | 1007.7 hPa | 0 mm | - | - | - |
| 1777437940 | 22.78° C | 40% | 1007.5 hPa | 0 mm | - | - | - |
| 1777437340 | 22.22° C | 42% | 1007.6 hPa | 0 mm | - | - | - |
| 1777436740 | 22.22° C | 42% | 1007.8 hPa | 0 mm | - | - | - |
| 1777436142 | 22.22° C | 41% | 1007.8 hPa | 0 mm | - | - | - |
| 1777435542 | 22.78° C | 40% | 1007.9 hPa | 0 mm | - | - | - |
| 1777434942 | 22.22° C | 39% | 1008 hPa | 0 mm | - | - | - |
| 1777434342 | 22.22° C | 38% | 1008 hPa | 0 mm | - | - | - |
| 1777433742 | 22.22° C | 40% | 1008.2 hPa | 0 mm | - | - | - |
| 1777433141 | 22.22° C | 40% | 1008.2 hPa | 0 mm | - | - | - |
| 1777432541 | 22.22° C | 40% | 1008.1 hPa | 0 mm | - | - | - |
| 1777431941 | 21.67° C | 41% | 1008.1 hPa | 0 mm | - | - | - |
| 1777431342 | 21.67° C | 41% | 1008.2 hPa | 0 mm | - | - | - |
| 1777430741 | 22.22° C | 40% | 1008.2 hPa | 0 mm | - | - | - |
| 1777430141 | 22.22° C | 40% | 1008 hPa | 0 mm | - | - | - |
| 1777429540 | 22.78° C | 38% | 1008 hPa | 0 mm | - | - | - |
| 1777428940 | 23.33° C | 37% | 1008 hPa | 0 mm | - | - | - |
| 1777428340 | 23.89° C | 36% | 1008.1 hPa | 0 mm | - | - | - |
| 1777427742 | 23.33° C | 36% | 1008.2 hPa | 0 mm | - | - | - |
| 1777427142 | 23.33° C | 37% | 1008.2 hPa | 0 mm | - | - | - |
| 1777426542 | 23.33° C | 36% | 1008.3 hPa | 0 mm | - | - | - |
| 1777425941 | 23.33° C | 39% | 1008.2 hPa | 0 mm | - | - | - |
| 1777425341 | 22.78° C | 40% | 1008.3 hPa | 0 mm | - | - | - |
| 1777424741 | 22.22° C | 41% | 1008.4 hPa | 0 mm | - | - | - |
| 1777424141 | 22.22° C | 42% | 1008.4 hPa | 0 mm | - | - | - |
* Rain latest hour (hover to see other rain measurements)
** Current wind speed in m/s (hover to see current wind gust speed)